Time,TemperatureF,DewpointF,PressureIn,WindDirection,WindDirectionDegrees,WindSpeedMPH,WindSpeedGustMPH,Humidity,HourlyPrecipIn,Conditions,Clouds,dailyrainin,SoftwareType,DateUTC
2013-08-10 00:02:00,59.0,54.0,30.06,WSW,248,0.0,1.0,84,0.00,,,0.01,,2013-08-10 05:02:00,
2013-08-10 00:11:00,59.0,54.0,30.06,WSW,248,1.0,2.0,85,0.00,,,0.01,,2013-08-10 05:11:00,
2013-08-10 00:22:00,59.0,54.0,30.06,WSW,248,1.0,2.0,85,0.00,,,0.01,,2013-08-10 05:22:00,
2013-08-10 00:32:00,60.0,55.0,30.06,SW,225,0.0,1.0,84,0.00,,,0.01,,2013-08-10 05:32:00,
2013-08-10 00:43:00,60.0,55.0,30.06,SW,225,0.0,1.0,84,0.00,,,0.01,,2013-08-10 05:43:00,
2013-08-10 00:52:00,60.0,55.0,30.06,SW,225,0.0,0.0,85,0.00,,,0.01,,2013-08-10 05:52:00,
2013-08-10 01:02:00,60.0,55.0,30.06,SW,225,0.0,0.0,85,0.00,,,0.01,,2013-08-10 06:02:00,
2013-08-10 01:11:00,59.0,54.0,30.06,SE,142,0.0,1.0,85,0.00,,,0.01,,2013-08-10 06:11:00,
2013-08-10 01:22:00,59.0,54.0,30.06,SE,142,0.0,1.0,85,0.00,,,0.01,,2013-08-10 06:22:00,
2013-08-10 01:32:00,59.0,55.0,30.07,SW,235,1.0,1.0,87,0.00,,,0.01,,2013-08-10 06:32:00,
2013-08-10 01:44:00,59.0,55.0,30.07,SW,235,0.0,1.0,88,0.00,,,0.01,,2013-08-10 06:44:00,
2013-08-10 01:53:00,59.0,55.0,30.07,SW,235,0.0,1.0,88,0.00,,,0.01,,2013-08-10 06:53:00,
2013-08-10 02:02:00,59.0,55.0,30.07,SW,236,1.0,2.0,88,0.00,,,0.01,,2013-08-10 07:02:00,
2013-08-10 02:12:00,59.0,55.0,30.07,SW,236,1.0,2.0,88,0.00,,,0.01,,2013-08-10 07:12:00,
2013-08-10 02:22:00,59.0,55.0,30.07,SW,227,0.0,1.0,88,0.00,,,0.01,,2013-08-10 07:22:00,
2013-08-10 02:33:00,59.0,55.0,30.07,SW,227,0.0,1.0,88,0.00,,,0.01,,2013-08-10 07:33:00,
2013-08-10 02:43:00,59.0,55.0,30.08,WSW,254,1.0,1.0,88,0.00,,,0.01,,2013-08-10 07:43:00,
2013-08-10 02:52:00,59.0,55.0,30.08,WSW,254,1.0,1.0,88,0.00,,,0.01,,2013-08-10 07:52:00,
2013-08-10 03:01:00,59.0,56.0,30.08,WSW,255,1.0,1.0,89,0.00,,,0.01,,2013-08-10 08:01:00,
2013-08-10 03:12:00,59.0,56.0,30.08,WSW,255,1.0,1.0,89,0.00,,,0.01,,2013-08-10 08:12:00,
2013-08-10 03:22:00,59.0,55.0,30.09,West,277,0.0,1.0,88,0.00,,,0.00,,2013-08-10 08:22:00,
2013-08-10 03:32:00,59.0,55.0,30.09,West,277,0.0,1.0,88,0.00,,,0.00,,2013-08-10 08:32:00,
2013-08-10 03:43:00,59.0,56.0,30.09,West,259,0.0,1.0,89,0.00,,,0.00,,2013-08-10 08:43:00,
2013-08-10 03:53:00,59.0,56.0,30.09,West,259,0.0,1.0,89,0.00,,,0.00,,2013-08-10 08:53:00,
2013-08-10 04:02:00,59.0,56.0,30.09,West,267,0.0,1.0,89,0.00,,,0.00,,2013-08-10 09:02:00,
2013-08-10 04:12:00,59.0,56.0,30.09,WSW,257,1.0,1.0,89,0.00,,,0.00,,2013-08-10 09:12:00,
2013-08-10 04:22:00,59.0,56.0,30.09,WSW,257,1.0,1.0,89,0.00,,,0.00,,2013-08-10 09:22:00,
2013-08-10 04:32:00,59.0,56.0,30.10,WSW,257,0.0,1.0,90,0.00,,,0.00,,2013-08-10 09:32:00,
2013-08-10 04:43:00,59.0,56.0,30.10,WSW,257,0.0,1.0,90,0.00,,,0.00,,2013-08-10 09:43:00,
2013-08-10 04:52:00,59.0,56.0,30.10,West,265,0.0,1.0,90,0.00,,,0.00,,2013-08-10 09:52:00,
2013-08-10 05:02:00,59.0,56.0,30.10,West,265,0.0,1.0,90,0.00,,,0.00,,2013-08-10 10:02:00,
2013-08-10 05:11:00,59.0,56.0,30.10,West,265,0.0,0.0,90,0.00,,,0.00,,2013-08-10 10:11:00,
2013-08-10 05:22:00,59.0,56.0,30.10,West,265,0.0,0.0,90,0.00,,,0.00,,2013-08-10 10:22:00,
2013-08-10 05:33:00,58.0,55.0,30.10,WSW,255,0.0,1.0,90,0.00,,,0.00,,2013-08-10 10:33:00,
2013-08-10 05:44:00,58.0,55.0,30.10,WSW,255,0.0,1.0,90,0.00,,,0.00,,2013-08-10 10:44:00,
2013-08-10 05:52:00,58.0,55.0,30.10,SW,228,2.0,3.0,91,0.00,,,0.00,,2013-08-10 10:52:00,
2013-08-10 06:02:00,58.0,55.0,30.10,SW,228,2.0,3.0,91,0.00,,,0.00,,2013-08-10 11:02:00,
2013-08-10 06:11:00,58.0,56.0,30.11,WSW,238,2.0,2.0,92,0.00,,,0.00,,2013-08-10 11:11:00,
2013-08-10 06:33:00,58.0,56.0,30.11,West,266,0.0,1.0,92,0.00,,,0.00,,2013-08-10 11:33:00,
2013-08-10 06:43:00,57.0,55.0,30.11,WSW,249,0.0,1.0,92,0.00,,,0.00,,2013-08-10 11:43:00,
2013-08-10 06:53:00,57.0,55.0,30.11,WSW,249,0.0,1.0,92,0.00,,,0.00,,2013-08-10 11:53:00,
2013-08-10 07:01:00,57.0,55.0,30.11,SW,224,0.0,1.0,93,0.00,,,0.00,,2013-08-10 12:01:00,
2013-08-10 07:11:00,57.0,55.0,30.11,SW,224,0.0,1.0,93,0.00,,,0.00,,2013-08-10 12:11:00,
2013-08-10 07:22:00,57.0,55.0,30.11,SW,236,0.0,1.0,93,0.00,,,0.00,,2013-08-10 12:22:00,
2013-08-10 07:32:00,57.0,55.0,30.11,SW,236,0.0,1.0,93,0.00,,,0.00,,2013-08-10 12:32:00,
2013-08-10 07:42:00,58.0,56.0,30.12,SW,231,1.0,2.0,93,0.00,,,0.00,,2013-08-10 12:42:00,
2013-08-10 07:52:00,58.0,56.0,30.12,SW,231,1.0,2.0,93,0.00,,,0.00,,2013-08-10 12:52:00,
2013-08-10 08:01:00,58.0,56.0,30.11,SW,218,1.0,1.0,93,0.00,,,0.00,,2013-08-10 13:01:00,
2013-08-10 08:11:00,58.0,56.0,30.11,SW,218,1.0,1.0,93,0.00,,,0.00,,2013-08-10 13:11:00,
2013-08-10 08:21:00,59.0,57.0,30.12,WSW,246,1.0,2.0,93,0.00,,,0.00,,2013-08-10 13:21:00,
2013-08-10 08:32:00,61.0,59.0,30.12,SW,233,0.0,1.0,92,0.00,,,0.00,,2013-08-10 13:32:00,
2013-08-10 08:43:00,61.0,59.0,30.12,SW,233,0.0,1.0,92,0.00,,,0.00,,2013-08-10 13:43:00,
2013-08-10 08:52:00,63.0,58.0,30.11,NW,325,3.0,5.0,84,0.00,,,0.00,,2013-08-10 13:52:00,
2013-08-10 09:02:00,63.0,58.0,30.11,NW,325,3.0,5.0,84,0.00,,,0.00,,2013-08-10 14:02:00,
2013-08-10 09:12:00,64.0,58.0,30.11,NW,317,3.0,6.0,80,0.00,,,0.00,,2013-08-10 14:12:00,
2013-08-10 09:22:00,64.0,58.0,30.11,NW,317,3.0,6.0,80,0.00,,,0.00,,2013-08-10 14:22:00,
2013-08-10 09:33:00,65.0,57.0,30.12,NW,326,2.0,5.0,75,0.00,,,0.00,,2013-08-10 14:33:00,
2013-08-10 09:43:00,65.0,57.0,30.12,NW,326,2.0,5.0,75,0.00,,,0.00,,2013-08-10 14:43:00,
2013-08-10 09:53:00,65.0,56.0,30.12,NW,312,2.0,6.0,72,0.00,,,0.00,,2013-08-10 14:53:00,
2013-08-10 10:02:00,65.0,56.0,30.12,NW,312,2.0,6.0,72,0.00,,,0.00,,2013-08-10 15:02:00,
2013-08-10 10:12:00,66.0,57.0,30.12,NNW,339,5.0,7.0,72,0.00,,,0.00,,2013-08-10 15:12:00,
2013-08-10 10:34:00,66.0,56.0,30.12,NW,314,5.0,9.0,70,0.00,,,0.00,,2013-08-10 15:34:00,
2013-08-10 10:43:00,67.0,56.0,30.12,WSW,252,2.0,10.0,69,0.00,,,0.00,,2013-08-10 15:43:00,
2013-08-10 10:52:00,67.0,56.0,30.12,WSW,252,2.0,10.0,69,0.00,,,0.00,,2013-08-10 15:52:00,
2013-08-10 11:01:00,67.0,56.0,30.12,North,353,1.0,7.0,69,0.00,,,0.00,,2013-08-10 16:01:00,
2013-08-10 11:11:00,67.0,56.0,30.12,North,353,1.0,7.0,69,0.00,,,0.00,,2013-08-10 16:11:00,
2013-08-10 11:22:00,67.0,56.0,30.12,NNW,332,6.0,10.0,67,0.00,,,0.00,,2013-08-10 16:22:00,
2013-08-10 11:32:00,67.0,56.0,30.12,NNW,332,6.0,10.0,67,0.00,,,0.00,,2013-08-10 16:32:00,
2013-08-10 11:43:00,68.0,55.0,30.12,NW,314,3.0,11.0,63,0.00,,,0.00,,2013-08-10 16:43:00,
2013-08-10 11:53:00,68.0,55.0,30.12,NW,314,3.0,11.0,63,0.00,,,0.00,,2013-08-10 16:53:00,
2013-08-10 12:02:00,67.0,54.0,30.11,NW,307,6.0,11.0,63,0.00,,,0.00,,2013-08-10 17:02:00,
2013-08-10 12:12:00,67.0,54.0,30.11,NW,307,6.0,11.0,63,0.00,,,0.00,,2013-08-10 17:12:00,
2013-08-10 12:22:00,69.0,55.0,30.12,WSW,243,1.0,10.0,61,0.00,,,0.00,,2013-08-10 17:22:00,
2013-08-10 12:33:00,69.0,53.0,30.11,NNW,338,0.0,11.0,56,0.00,,,0.00,,2013-08-10 17:33:00,
2013-08-10 12:43:00,69.0,53.0,30.11,NNW,338,0.0,11.0,56,0.00,,,0.00,,2013-08-10 17:43:00,
2013-08-10 12:52:00,70.0,54.0,30.11,NW,314,7.0,9.0,56,0.00,,,0.00,,2013-08-10 17:52:00,
2013-08-10 13:01:00,70.0,54.0,30.11,NW,314,7.0,9.0,56,0.00,,,0.00,,2013-08-10 18:01:00,
2013-08-10 13:11:00,70.0,52.0,30.11,WNW,287,5.0,9.0,52,0.00,,,0.00,,2013-08-10 18:11:00,
2013-08-10 13:23:00,70.0,52.0,30.11,WNW,287,5.0,9.0,52,0.00,,,0.00,,2013-08-10 18:23:00,
2013-08-10 13:32:00,70.0,52.0,30.11,NW,307,3.0,10.0,52,0.00,,,0.00,,2013-08-10 18:32:00,
2013-08-10 13:44:00,70.0,52.0,30.11,NW,307,3.0,10.0,52,0.00,,,0.00,,2013-08-10 18:44:00,
2013-08-10 13:52:00,71.0,51.0,30.11,NW,314,8.0,11.0,50,0.00,,,0.00,,2013-08-10 18:52:00,
2013-08-10 14:02:00,71.0,51.0,30.11,NW,314,8.0,11.0,50,0.00,,,0.00,,2013-08-10 19:02:00,
2013-08-10 14:11:00,70.0,50.0,30.11,NW,326,3.0,10.0,50,0.00,,,0.00,,2013-08-10 19:11:00,
2013-08-10 14:22:00,70.0,50.0,30.11,NW,326,3.0,10.0,50,0.00,,,0.00,,2013-08-10 19:22:00,
2013-08-10 14:33:00,71.0,52.0,30.11,NW,309,8.0,15.0,52,0.00,,,0.00,,2013-08-10 19:33:00,
2013-08-10 14:44:00,71.0,53.0,30.10,WNW,289,0.0,9.0,53,0.00,,,0.00,,2013-08-10 19:44:00,
2013-08-10 14:53:00,71.0,53.0,30.10,WNW,289,0.0,9.0,53,0.00,,,0.00,,2013-08-10 19:53:00,
2013-08-10 15:02:00,72.0,52.0,30.10,East,96,1.0,10.0,50,0.00,,,0.00,,2013-08-10 20:02:00,
2013-08-10 15:12:00,72.0,52.0,30.10,East,96,1.0,10.0,50,0.00,,,0.00,,2013-08-10 20:12:00,
2013-08-10 15:22:00,72.0,53.0,30.09,NNW,337,6.0,10.0,51,0.00,,,0.00,,2013-08-10 20:22:00,
2013-08-10 15:33:00,72.0,53.0,30.09,NNW,337,6.0,10.0,51,0.00,,,0.00,,2013-08-10 20:33:00,
2013-08-10 15:43:00,72.0,53.0,30.09,NNW,334,5.0,8.0,52,0.00,,,0.00,,2013-08-10 20:43:00,
2013-08-10 15:53:00,72.0,53.0,30.09,NNW,334,5.0,8.0,52,0.00,,,0.00,,2013-08-10 20:53:00,
2013-08-10 16:02:00,72.0,53.0,30.08,NW,321,4.0,9.0,52,0.00,,,0.00,,2013-08-10 21:02:00,
2013-08-10 16:12:00,72.0,53.0,30.08,NW,321,4.0,9.0,52,0.00,,,0.00,,2013-08-10 21:12:00,
2013-08-10 16:22:00,73.0,56.0,30.08,NNW,335,3.0,8.0,55,0.00,,,0.00,,2013-08-10 21:22:00,
2013-08-10 16:32:00,73.0,56.0,30.08,NNW,335,3.0,8.0,55,0.00,,,0.00,,2013-08-10 21:32:00,
2013-08-10 16:42:00,73.0,55.0,30.08,WNW,294,4.0,10.0,53,0.00,,,0.00,,2013-08-10 21:42:00,
2013-08-10 16:52:00,73.0,55.0,30.08,WNW,294,4.0,10.0,53,0.00,,,0.00,,2013-08-10 21:52:00,
2013-08-10 17:01:00,72.0,53.0,30.07,WNW,284,1.0,5.0,52,0.00,,,0.00,,2013-08-10 22:01:00,
2013-08-10 17:11:00,72.0,53.0,30.07,NNW,338,6.0,8.0,51,0.00,,,0.00,,2013-08-10 22:11:00,
2013-08-10 17:21:00,72.0,53.0,30.07,NNW,338,6.0,8.0,51,0.00,,,0.00,,2013-08-10 22:21:00,
2013-08-10 17:32:00,72.0,55.0,30.06,NW,326,4.0,7.0,55,0.00,,,0.00,,2013-08-10 22:32:00,
2013-08-10 17:43:00,72.0,55.0,30.06,NW,326,4.0,7.0,55,0.00,,,0.00,,2013-08-10 22:43:00,
2013-08-10 17:52:00,73.0,56.0,30.06,NW,323,4.0,7.0,55,0.00,,,0.00,,2013-08-10 22:52:00,
2013-08-10 18:01:00,73.0,56.0,30.06,NW,323,4.0,7.0,55,0.00,,,0.00,,2013-08-10 23:01:00,
2013-08-10 18:12:00,73.0,56.0,30.06,NW,316,3.0,5.0,56,0.00,,,0.00,,2013-08-10 23:12:00,
2013-08-10 18:22:00,73.0,56.0,30.06,NW,316,3.0,5.0,56,0.00,,,0.00,,2013-08-10 23:22:00,
2013-08-10 18:32:00,72.0,55.0,30.06,NW,326,2.0,5.0,55,0.00,,,0.00,,2013-08-10 23:32:00,
2013-08-10 18:43:00,72.0,55.0,30.06,NW,326,2.0,5.0,55,0.00,,,0.00,,2013-08-10 23:43:00,
2013-08-10 18:53:00,72.0,55.0,30.06,NNW,329,3.0,5.0,56,0.00,,,0.00,,2013-08-10 23:53:00,
2013-08-10 19:02:00,72.0,55.0,30.06,NNW,329,3.0,5.0,56,0.00,,,0.00,,2013-08-11 00:02:00,
2013-08-10 19:11:00,71.0,54.0,30.04,NNW,339,2.0,4.0,56,0.00,,,0.00,,2013-08-11 00:11:00,
2013-08-10 19:22:00,70.0,56.0,30.04,North,1,0.0,1.0,61,0.00,,,0.00,,2013-08-11 00:22:00,
2013-08-10 19:32:00,70.0,56.0,30.04,North,1,0.0,1.0,61,0.00,,,0.00,,2013-08-11 00:32:00,
2013-08-10 19:42:00,70.0,57.0,30.04,North,1,0.0,1.0,64,0.00,,,0.00,,2013-08-11 00:42:00,
2013-08-10 19:52:00,70.0,57.0,30.04,North,1,0.0,1.0,64,0.00,,,0.00,,2013-08-11 00:52:00,
2013-08-10 20:01:00,70.0,57.0,30.04,North,1,0.0,1.0,64,0.00,,,0.00,,2013-08-11 01:01:00,
2013-08-10 20:11:00,70.0,57.0,30.04,North,1,0.0,1.0,64,0.00,,,0.00,,2013-08-11 01:11:00,
2013-08-10 20:22:00,67.0,60.0,30.03,East,86,0.0,1.0,79,0.00,,,0.00,,2013-08-11 01:22:00,
2013-08-10 20:32:00,67.0,60.0,30.03,East,86,0.0,1.0,79,0.00,,,0.00,,2013-08-11 01:32:00,
2013-08-10 20:43:00,66.0,60.0,30.03,East,81,0.0,1.0,80,0.00,,,0.00,,2013-08-11 01:43:00,
2013-08-10 20:54:00,66.0,60.0,30.03,East,81,0.0,1.0,80,0.00,,,0.00,,2013-08-11 01:54:00,
2013-08-10 21:02:00,66.0,60.0,30.02,East,98,0.0,1.0,82,0.00,,,0.00,,2013-08-11 02:02:00,
2013-08-10 21:11:00,66.0,60.0,30.02,East,98,0.0,1.0,82,0.00,,,0.00,,2013-08-11 02:11:00,
2013-08-10 21:22:00,65.0,60.0,30.02,ESE,108,1.0,2.0,85,0.00,,,0.00,,2013-08-11 02:22:00,
2013-08-10 21:32:00,64.0,59.0,30.02,East,83,1.0,2.0,85,0.00,,,0.00,,2013-08-11 02:32:00,
2013-08-10 21:43:00,64.0,59.0,30.02,East,83,1.0,2.0,85,0.00,,,0.00,,2013-08-11 02:43:00,
2013-08-10 21:57:00,64.0,59.0,30.03,East,85,0.0,1.0,85,0.00,,,0.00,,2013-08-11 02:57:00,
2013-08-10 22:05:00,64.0,59.0,30.03,East,85,0.0,1.0,85,0.00,,,0.00,,2013-08-11 03:05:00,
2013-08-10 22:17:00,64.0,60.0,30.02,East,85,0.0,1.0,87,0.00,,,0.00,,2013-08-11 03:17:00,
2013-08-10 22:27:00,64.0,60.0,30.02,East,85,0.0,1.0,87,0.00,,,0.00,,2013-08-11 03:27:00,
2013-08-10 22:35:00,64.0,58.0,30.03,SSW,204,0.0,0.0,82,0.00,,,0.00,,2013-08-11 03:35:00,
2013-08-10 22:44:00,64.0,58.0,30.03,SSW,204,0.0,0.0,82,0.00,,,0.00,,2013-08-11 03:44:00,
2013-08-10 22:54:00,65.0,59.0,30.03,ESE,113,0.0,1.0,82,0.00,,,0.00,,2013-08-11 03:54:00,
2013-08-10 23:01:00,65.0,59.0,30.03,ESE,113,0.0,1.0,82,0.00,,,0.00,,2013-08-11 04:01:00,
2013-08-10 23:12:00,64.0,60.0,30.03,East,81,0.0,1.0,86,0.00,,,0.00,,2013-08-11 04:12:00,
2013-08-10 23:22:00,64.0,60.0,30.03,East,81,0.0,1.0,86,0.00,,,0.00,,2013-08-11 04:22:00,
2013-08-10 23:32:00,64.0,59.0,30.03,East,80,0.0,0.0,85,0.00,,,0.00,,2013-08-11 04:32:00,
2013-08-10 23:43:00,65.0,60.0,30.03,SE,144,0.0,1.0,85,0.00,,,0.00,,2013-08-11 04:43:00,
2013-08-10 23:53:00,65.0,60.0,30.03,SE,144,0.0,1.0,85,0.00,,,0.00,,2013-08-11 04:53:00,